Date String (YYYY-MM-DD hh:mm:ss) UTC,Instrument flags,Ambient pressure (hPa),Sample flow (lpm),Bypass flow (lpm),Sample temperature (°C),Ambient temperature (°C),ASC tube jacket temperature (°C),LED temperature (°C),Box temperature (°C),Sample RH (%),Span deviation,Mass concentration (μg/m³),Mass concentration (μg/m³),Mass concentration (μg/m³)
DateTimeUTC,F1_M11,P_M11,Q1_M11,Q2_M11,T1_M11,T2_M11,T3_M11,T4_M11,T5_M11,U1_M11,ZSPAN_M11,X2_M11,X0_M11,X1_M11
2022-06-14 13:00:00,,0820.2,5.01,0.00,28.8,27.8,00.0,37.6,30.7,18.7,0001.8,0010.82,0031.13,0004.69
2022-06-14 13:01:00,,0820.4,4.99,0.00,28.8,27.8,00.0,37.6,30.7,18.1,0001.1,0010.46,0029.69,0004.56
2022-06-14 13:02:00,,0820.5,4.99,0.00,28.8,27.8,00.0,37.6,30.7,18.1,0000.0,0010.09,0027.97,0004.39
2022-06-14 13:03:00,,0820.6,5.00,0.00,28.8,27.8,00.0,37.6,30.7,18.2,0000.5,0009.83,0027.39,0004.24
2022-06-14 13:04:00,,0820.6,5.01,0.00,28.8,27.8,00.0,37.7,30.7,18.1,0000.0,0009.40,0026.37,0004.08
2022-06-14 13:05:00,,0820.7,5.00,0.00,28.8,27.8,00.0,37.7,30.7,18.0,0000.0,0009.13,0025.18,0003.93
2022-06-14 13:06:00,,0820.6,5.00,0.00,28.8,27.8,00.0,37.7,30.7,18.1,0000.0,0008.86,0023.75,0003.76
2022-06-14 13:07:00,,0820.6,5.00,0.00,28.8,27.8,00.0,37.7,30.7,18.1,0000.0,0008.53,0023.27,0003.56
2022-06-14 13:08:00,,0820.7,5.00,0.00,28.8,27.9,00.0,37.7,30.7,17.9,0000.0,0008.35,0023.53,0003.43
2022-06-14 13:09:00,,0820.7,5.01,0.00,28.9,27.9,00.0,37.7,30.7,17.7,0000.0,0008.06,0022.24,0003.31
2022-06-14 13:10:00,,0820.6,5.01,0.00,28.9,27.9,00.0,37.7,30.8,17.7,0000.0,0008.05,0022.27,0003.24
2022-06-14 13:11:00,,0820.6,5.00,0.00,28.9,27.9,00.0,37.7,30.8,17.6,0000.0,0008.06,0023.34,0003.17
2022-06-14 13:12:00,,0820.7,5.01,0.00,28.9,27.9,00.0,37.7,30.8,17.6,0000.0,0008.05,0023.62,0003.15
2022-06-14 13:13:00,,0820.6,5.00,0.00,28.9,27.9,00.0,37.7,30.8,17.6,0000.0,0008.00,0023.51,0003.15
2022-06-14 13:14:00,,0820.7,5.01,0.00,28.9,27.9,00.0,37.7,30.8,17.6,0000.0,0007.88,0023.31,0003.12
2022-06-14 13:15:00,,0820.8,5.00,0.00,28.9,27.9,00.0,37.7,30.8,17.5,0000.0,0007.91,0024.05,0003.09
2022-06-14 13:16:00,,0820.9,4.99,0.00,28.9,27.9,00.0,37.7,30.7,17.5,0000.0,0007.90,0024.25,0003.03
2022-06-14 13:17:00,,0821.0,5.01,0.00,28.9,27.9,00.0,37.8,30.8,17.5,0000.0,0007.89,0024.29,0003.01
2022-06-14 13:18:00,,0821.0,4.99,0.00,28.9,27.9,00.0,37.8,30.8,17.7,0000.0,0007.98,0024.41,0003.04
2022-06-14 13:19:00,,0821.1,5.00,0.00,28.9,27.9,00.0,37.8,30.8,17.7,0000.0,0008.14,0024.57,0003.10
2022-06-14 13:20:00,,0821.1,4.99,0.00,28.9,27.9,00.0,37.8,30.8,17.8,0000.0,0008.35,0025.21,0003.15
2022-06-14 13:21:00,,0821.2,5.01,0.00,28.9,27.9,00.0,37.8,30.8,17.7,0000.0,0008.36,0025.55,0003.18
2022-06-14 13:22:00,,0821.2,5.01,0.00,28.9,28.0,00.0,37.8,30.8,17.4,0000.0,0008.43,0024.91,0003.21
2022-06-14 13:23:00,,0821.2,5.00,0.00,29.0,28.0,00.0,37.8,30.9,17.4,0000.0,0008.40,0024.47,0003.22
2022-06-14 13:24:00,,0821.2,5.00,0.00,29.0,28.0,00.0,37.8,30.9,17.5,-000.9,0008.41,0024.49,0003.23
2022-06-14 13:25:00,,0821.3,4.99,0.00,29.0,28.0,00.0,37.8,30.9,17.4,-001.3,0008.43,0024.58,0003.24
2022-06-14 13:26:00,,0821.3,4.99,0.00,29.0,28.0,00.0,37.8,30.9,17.3,0001.9,0008.32,0023.54,0003.24
2022-06-14 13:27:00,,0821.4,5.00,0.00,29.0,28.0,00.0,37.8,30.9,17.1,0004.2,0008.25,0022.74,0003.22
2022-06-14 13:28:00,,0821.4,5.00,0.00,29.0,28.0,00.0,37.8,30.9,17.1,-000.3,0008.22,0022.65,0003.20
2022-06-14 13:29:00,,0821.4,5.00,0.00,29.0,28.0,00.0,37.8,30.9,17.2,0000.0,0008.04,0022.14,0003.17
2022-06-14 13:30:00,,0821.5,5.01,0.00,29.0,28.0,00.0,37.9,30.9,17.6,0000.0,0007.94,0021.79,0003.13
2022-06-14 13:31:00,,0821.5,5.00,0.00,29.0,28.0,00.0,37.9,30.9,17.8,0000.0,0007.81,0021.22,0003.11
2022-06-14 13:32:00,,0821.6,5.00,0.00,29.0,28.1,00.0,37.9,30.9,17.9,0000.0,0007.87,0021.12,0003.12
2022-06-14 13:33:00,,0821.7,5.00,0.00,29.0,28.1,00.0,37.9,30.9,17.9,0000.0,0007.89,0021.32,0003.13
2022-06-14 13:34:00,,0821.6,4.99,0.00,29.0,28.1,00.0,37.9,31.0,18.0,0000.0,0008.06,0022.25,0003.19
2022-06-14 13:35:00,,0821.6,5.00,0.00,29.1,28.1,00.0,37.9,31.0,18.2,0000.0,0008.27,0023.61,0003.26
2022-06-14 13:36:00,,0821.6,5.00,0.00,29.1,28.2,00.0,37.9,31.0,18.3,0000.0,0008.54,0023.96,0003.36
2022-06-14 13:37:00,,0821.5,5.00,0.00,29.1,28.2,00.0,37.9,31.0,18.2,0000.0,0008.77,0024.84,0003.45
2022-06-14 13:38:00,,0821.5,4.99,0.00,29.1,28.2,00.0,37.9,31.0,18.1,0000.0,0009.10,0025.89,0003.55
2022-06-14 13:39:00,,0821.5,5.00,0.00,29.1,28.2,00.0,38.0,31.0,18.1,0000.0,0009.40,0026.84,0003.66
2022-06-14 13:40:00,,0821.4,5.01,0.00,29.1,28.2,00.0,38.0,31.0,18.1,0000.0,0009.76,0028.32,0003.77
2022-06-14 13:41:00,,0821.7,4.99,0.00,29.1,28.3,00.0,38.0,31.0,18.2,0000.0,0010.02,0028.83,0003.86
2022-06-14 13:42:00,,0821.5,5.01,0.00,29.1,28.3,00.0,38.0,31.1,18.2,0000.0,0010.12,0029.07,0003.91
2022-06-14 13:43:00,,0821.5,5.00,0.00,29.1,28.3,00.0,38.0,31.1,18.4,0000.0,0010.17,0029.20,0003.94
2022-06-14 13:44:00,,0821.5,5.01,0.00,29.2,28.3,00.0,38.0,31.1,18.5,0000.3,0010.27,0028.74,0003.98
2022-06-14 13:45:00,,0821.5,5.00,0.00,29.2,28.3,00.0,38.0,31.1,18.4,0004.5,0010.25,0028.30,0003.99
2022-06-14 13:46:00,,0821.5,4.99,0.00,29.2,28.3,00.0,38.0,31.1,18.3,0003.6,0010.14,0027.35,0003.96
2022-06-14 13:47:00,,0821.5,5.00,0.00,29.2,28.3,00.0,38.0,31.1,18.2,0001.8,0009.98,0027.75,0003.91
2022-06-14 13:48:00,,0821.4,4.99,0.00,29.2,28.3,00.0,38.0,31.1,17.9,0001.8,0009.86,0027.85,0003.86
2022-06-14 13:49:00,,0821.5,5.01,0.00,29.2,28.3,00.0,38.0,31.1,17.4,0002.1,0009.68,0027.36,0003.78
2022-06-14 13:50:00,,0821.4,4.99,0.00,29.2,28.3,00.0,38.1,31.1,17.4,0000.9,0009.41,0026.65,0003.67
2022-06-14 13:51:00,,0821.5,4.98,0.00,29.2,28.3,00.0,38.1,31.1,17.5,0000.2,0009.17,0025.97,0003.59
2022-06-14 13:52:00,,0821.4,5.00,0.00,29.2,28.3,00.0,38.1,31.1,17.8,0000.8,0008.90,0025.25,0003.52
2022-06-14 13:53:00,,0821.4,5.01,0.00,29.2,28.3,00.0,38.1,31.1,17.7,0000.4,0008.78,0025.13,0003.45
2022-06-14 13:54:00,,0821.4,5.00,0.00,29.2,28.3,00.0,38.1,31.1,17.7,-000.7,0008.65,0024.99,0003.39
2022-06-14 13:55:00,,0821.4,5.00,0.00,29.2,28.3,00.0,38.1,31.1,17.6,0000.6,0008.43,0024.58,0003.31
2022-06-14 13:56:00,,0821.4,5.00,0.00,29.2,28.3,00.0,38.1,31.1,17.6,0000.0,0008.23,0024.20,0003.21
2022-06-14 13:57:00,,0821.4,5.00,0.00,29.2,28.3,00.0,38.1,31.1,17.6,0000.0,0008.00,0023.69,0003.14
2022-06-14 13:58:00,,0821.4,5.00,0.00,29.2,28.3,00.0,38.1,31.1,17.5,0000.0,0007.83,0022.58,0003.06
2022-06-14 13:59:00,,0821.4,4.99,0.00,29.2,28.3,00.0,38.1,31.1,17.6,0000.0,0007.67,0021.62,0002.97
